| time (UTC) | temp F | wind direction | speed MPH | gust MPH | rain 1hr in | rain 24hr in | rain mn in | humidity % | barometer mb |
| 20260503205416 | 70 | 240 | 5.0 | 11.0 | 0.00 | 0.00 | 0.00 | 35 | 1007.1 |
| 20260503204823 | 69 | 320 | 2.0 | 18.0 | 0.00 | 0.00 | 0.00 | 39 | 1007.2 |
| 20260503204415 | 69 | 252 | 4.0 | 18.0 | 0.00 | 0.00 | 0.00 | 37 | 1007.3 |
| 20260503204124 | 69 | 252 | 4.0 | 18.0 | 0.00 | 0.00 | 0.00 | 37 | 1007.3 |
| 20260503203415 | 69 | 289 | 5.0 | 12.0 | 0.00 | 0.00 | 0.00 | 38 | 1007.6 |
| 20260503202723 | 69 | 316 | 5.0 | 9.0 | 0.00 | 0.00 | 0.00 | 38 | 1007.6 |
| 20260503202415 | 68 | 330 | 4.0 | 9.0 | 0.00 | 0.00 | 0.00 | 37 | 1007.6 |
| 20260503202022 | 68 | 330 | 4.0 | 9.0 | 0.00 | 0.00 | 0.00 | 37 | 1007.6 |
| 20260503201415 | 68 | 272 | 3.0 | 9.0 | 0.00 | 0.00 | 0.00 | 35 | 1008.0 |
| 20260503201323 | 68 | 272 | 3.0 | 9.0 | 0.00 | 0.00 | 0.00 | 35 | 1008.0 |
| 20260503200622 | 68 | 314 | 4.0 | 14.0 | 0.00 | 0.00 | 0.00 | 38 | 1008.0 |
| 20260503200415 | 69 | 322 | 5.0 | 14.0 | 0.00 | 0.00 | 0.00 | 37 | 1008.1 |
| 20260503195925 | 68 | 283 | 1.0 | 10.0 | 0.00 | 0.00 | 0.00 | 40 | 1008.2 |
| 20260503195414 | 68 | 330 | 3.0 | 10.0 | 0.00 | 0.00 | 0.00 | 41 | 1008.2 |
| 20260503195222 | 68 | 330 | 3.0 | 10.0 | 0.00 | 0.00 | 0.00 | 41 | 1008.2 |
| 20260503194523 | 68 | 296 | 3.0 | 8.0 | 0.00 | 0.00 | 0.00 | 40 | 1008.3 |
| 20260503194414 | 68 | 289 | 4.0 | 12.0 | 0.00 | 0.00 | 0.00 | 40 | 1008.3 |
| 20260503193823 | 67 | 309 | 3.0 | 12.0 | 0.00 | 0.00 | 0.00 | 40 | 1008.3 |
| 20260503193414 | 67 | 324 | 5.0 | 9.0 | 0.00 | 0.00 | 0.00 | 38 | 1008.4 |
| 20260503193123 | 67 | 324 | 5.0 | 9.0 | 0.00 | 0.00 | 0.00 | 38 | 1008.4 |
| 20260503192414 | 67 | 259 | 4.0 | 12.0 | 0.00 | 0.00 | 0.00 | 41 | 1008.5 |
| 20260503191722 | 67 | 308 | 4.0 | 12.0 | 0.00 | 0.00 | 0.00 | 40 | 1008.4 |
| 20260503191414 | 67 | 330 | 4.0 | 10.0 | 0.00 | 0.00 | 0.00 | 39 | 1008.6 |
| 20260503191023 | 67 | 330 | 4.0 | 10.0 | 0.00 | 0.00 | 0.00 | 39 | 1008.6 |
| 20260503190416 | 67 | 291 | 3.0 | 10.0 | 0.00 | 0.00 | 0.00 | 41 | 1008.7 |
| 20260503190323 | 67 | 291 | 3.0 | 10.0 | 0.00 | 0.00 | 0.00 | 41 | 1008.7 |
| 20260503185625 | 67 | 294 | 4.0 | 10.0 | 0.00 | 0.00 | 0.00 | 41 | 1008.8 |
| 20260503185414 | 67 | 295 | 3.0 | 10.0 | 0.00 | 0.00 | 0.00 | 43 | 1008.9 |
| 20260503184925 | 67 | 320 | 5.0 | 14.0 | 0.00 | 0.00 | 0.00 | 40 | 1008.9 |
| 20260503184414 | 67 | 321 | 4.0 | 14.0 | 0.00 | 0.00 | 0.00 | 43 | 1008.9 |
| 20260503184226 | 67 | 321 | 4.0 | 14.0 | 0.00 | 0.00 | 0.00 | 43 | 1008.9 |
| 20260503183522 | 67 | 303 | 3.0 | 10.0 | 0.00 | 0.00 | 0.00 | 41 | 1009.1 |
| 20260503183414 | 67 | 336 | 4.0 | 10.0 | 0.00 | 0.00 | 0.00 | 42 | 1009.1 |
| 20260503182822 | 66 | 332 | 3.0 | 10.0 | 0.00 | 0.00 | 0.00 | 44 | 1009.0 |
| 20260503182414 | 66 | 261 | 3.0 | 11.0 | 0.00 | 0.00 | 0.00 | 45 | 1009.2 |
| 20260503182122 | 66 | 261 | 3.0 | 11.0 | 0.00 | 0.00 | 0.00 | 45 | 1009.2 |
| 20260503181416 | 66 | 335 | 5.0 | 13.0 | 0.00 | 0.00 | 0.00 | 42 | 1009.2 |
| 20260503180724 | 66 | 323 | 4.0 | 11.0 | 0.00 | 0.00 | 0.00 | 42 | 1009.4 |
| 20260503180416 | 66 | 323 | 4.0 | 11.0 | 0.00 | 0.00 | 0.00 | 43 | 1009.5 |
| 20260503180025 | 66 | 323 | 4.0 | 11.0 | 0.00 | 0.00 | 0.00 | 43 | 1009.5 |
| 20260503175415 | 66 | 290 | 2.0 | 11.0 | 0.00 | 0.00 | 0.00 | 46 | 1009.6 |
| 20260503175323 | 66 | 290 | 2.0 | 11.0 | 0.00 | 0.00 | 0.00 | 46 | 1009.6 |
| 20260503174625 | 65 | 281 | 3.0 | 12.0 | 0.00 | 0.00 | 0.00 | 44 | 1009.5 |
| 20260503174415 | 65 | 325 | 5.0 | 12.0 | 0.00 | 0.00 | 0.00 | 44 | 1009.6 |
| 20260503173923 | 65 | 317 | 5.0 | 12.0 | 0.00 | 0.00 | 0.00 | 45 | 1009.7 |
| 20260503173415 | 66 | 278 | 4.0 | 9.0 | 0.00 | 0.00 | 0.00 | 47 | 1009.7 |
| 20260503173224 | 66 | 278 | 4.0 | 9.0 | 0.00 | 0.00 | 0.00 | 47 | 1009.7 |
| 20260503172523 | 65 | 288 | 3.0 | 14.0 | 0.00 | 0.00 | 0.00 | 49 | 1009.8 |
| 20260503172415 | 65 | 313 | 4.0 | 14.0 | 0.00 | 0.00 | 0.00 | 49 | 1009.8 |
| 20260503171823 | 64 | 343 | 5.0 | 11.0 | 0.00 | 0.00 | 0.00 | 49 | 1009.9 |
| 20260503171414 | 64 | 335 | 6.0 | 12.0 | 0.00 | 0.00 | 0.00 | 48 | 1010.0 |
| 20260503171123 | 64 | 335 | 6.0 | 12.0 | 0.00 | 0.00 | 0.00 | 48 | 1010.0 |
| 20260503170414 | 64 | 273 | 4.0 | 14.0 | 0.00 | 0.00 | 0.00 | 51 | 1010.0 |
| 20260503160122 | 62 | 346 | 7.0 | 12.0 | 0.00 | 0.00 | 0.00 | 52 | 1010.1 |
| 20260503150525 | 60 | 324 | 5.0 | 8.0 | 0.00 | 0.00 | 0.00 | 58 | 1010.3 |
| 20260503150416 | 60 | 331 | 4.0 | 10.0 | 0.00 | 0.00 | 0.00 | 60 | 1010.4 |
| 20260503140223 | 56 | 336 | 5.0 | 7.0 | 0.00 | 0.00 | 0.00 | 68 | 1010.2 |
| 20260503131414 | 51 | 339 | 4.0 | 10.0 | 0.00 | 0.00 | 0.00 | 80 | 1010.0 |
| 20260503131321 | 51 | 339 | 4.0 | 10.0 | 0.00 | 0.00 | 0.00 | 80 | 1010.0 |
| 20260503130622 | 51 | 312 | 3.0 | 6.0 | 0.00 | 0.00 | 0.00 | 81 | 1009.9 |
| 20260503130414 | 51 | 324 | 3.0 | 6.0 | 0.00 | 0.00 | 0.00 | 81 | 1010.0 |
| 20260503110723 | 46 | 321 | 1.0 | 3.0 | 0.00 | 0.00 | 0.00 | 83 | 1008.6 |
| 20260503110416 | 47 | 295 | 1.0 | 8.0 | 0.00 | 0.00 | 0.00 | 82 | 1008.4 |
| 20260503090415 | 50 | 323 | 2.0 | 5.0 | 0.00 | 0.00 | 0.00 | 75 | 1007.7 |
| 20260503090125 | 50 | 323 | 2.0 | 5.0 | 0.00 | 0.00 | 0.00 | 75 | 1007.7 |
| 20260503081414 | 52 | 315 | 1.0 | 4.0 | 0.00 | 0.00 | 0.00 | 71 | 1007.4 |
| 20260503081224 | 52 | 315 | 1.0 | 4.0 | 0.00 | 0.00 | 0.00 | 71 | 1007.4 |
| 20260503080524 | 53 | 315 | 2.0 | 5.0 | 0.00 | 0.00 | 0.00 | 70 | 1007.5 |
| 20260503080416 | 53 | 322 | 2.0 | 7.0 | 0.00 | 0.00 | 0.00 | 70 | 1007.4 |
| 20260503072415 | 54 | 305 | 2.0 | 6.0 | 0.00 | 0.00 | 0.00 | 68 | 1007.1 |
| 20260503072323 | 54 | 305 | 2.0 | 6.0 | 0.00 | 0.00 | 0.00 | 68 | 1007.1 |
| 20260503071622 | 54 | 302 | 2.0 | 7.0 | 0.00 | 0.00 | 0.00 | 68 | 1007.2 |
| 20260503071415 | 53 | 305 | 1.0 | 7.0 | 0.00 | 0.00 | 0.00 | 68 | 1007.1 |
| 20260503070922 | 53 | 295 | 1.0 | 5.0 | 0.00 | 0.00 | 0.00 | 69 | 1007.1 |
| 20260503070415 | 53 | 293 | 1.0 | 6.0 | 0.00 | 0.00 | 0.00 | 68 | 1007.1 |
| 20260503070222 | 53 | 293 | 1.0 | 6.0 | 0.00 | 0.00 | 0.00 | 68 | 1007.1 |
| 20260503054527 | 56 | 246 | 2.0 | 5.0 | 0.00 | 0.00 | 0.00 | 65 | 1007.0 |
| 20260503054415 | 56 | 246 | 1.0 | 5.0 | 0.00 | 0.00 | 0.00 | 65 | 1006.9 |
| 20260503053825 | 56 | 246 | 2.0 | 4.0 | 0.00 | 0.00 | 0.00 | 65 | 1006.9 |
| 20260503053415 | 56 | 246 | 2.0 | 6.0 | 0.00 | 0.00 | 0.00 | 66 | 1007.0 |
| 20260503053122 | 56 | 246 | 2.0 | 6.0 | 0.00 | 0.00 | 0.00 | 66 | 1007.0 |
| 20260503052415 | 56 | 246 | 2.0 | 5.0 | 0.00 | 0.00 | 0.00 | 66 | 1007.0 |
| 20260503051723 | 56 | 246 | 3.0 | 6.0 | 0.00 | 0.00 | 0.00 | 65 | 1007.0 |
| 20260503051416 | 56 | 246 | 2.0 | 7.0 | 0.00 | 0.00 | 0.00 | 64 | 1006.9 |
| 20260503051029 | 56 | 246 | 2.0 | 7.0 | 0.00 | 0.00 | 0.00 | 64 | 1006.9 |
| 20260503050416 | 57 | 240 | 3.0 | 7.0 | 0.00 | 0.00 | 0.00 | 62 | 1007.1 |
| 20260503050325 | 57 | 240 | 3.0 | 7.0 | 0.00 | 0.00 | 0.00 | 62 | 1007.1 |
| 20260503045623 | 57 | 247 | 3.0 | 7.0 | 0.00 | 0.00 | 0.00 | 62 | 1007.0 |
| 20260503045415 | 57 | 223 | 3.0 | 9.0 | 0.00 | 0.00 | 0.00 | 61 | 1007.0 |
| 20260503044926 | 57 | 227 | 2.0 | 9.0 | 0.00 | 0.00 | 0.00 | 60 | 1007.0 |
| 20260503044415 | 57 | 244 | 4.0 | 10.0 | 0.00 | 0.00 | 0.00 | 60 | 1007.1 |
| 20260503044227 | 57 | 244 | 4.0 | 10.0 | 0.00 | 0.00 | 0.00 | 60 | 1007.1 |
| 20260503043522 | 57 | 245 | 3.0 | 10.0 | 0.00 | 0.00 | 0.00 | 60 | 1007.1 |
| 20260503043415 | 57 | 244 | 2.0 | 7.0 | 0.00 | 0.00 | 0.00 | 60 | 1007.1 |
| 20260503042827 | 58 | 240 | 2.0 | 7.0 | 0.00 | 0.00 | 0.00 | 59 | 1007.1 |
| 20260503042415 | 58 | 216 | 2.0 | 7.0 | 0.00 | 0.00 | 0.00 | 58 | 1006.9 |
| 20260503042122 | 58 | 216 | 2.0 | 7.0 | 0.00 | 0.00 | 0.00 | 58 | 1006.9 |
| 20260503041416 | 58 | 219 | 2.0 | 5.0 | 0.00 | 0.00 | 0.00 | 57 | 1006.8 |
| 20260503040723 | 58 | 219 | 3.0 | 6.0 | 0.00 | 0.00 | 0.00 | 57 | 1006.8 |
| 20260503040416 | 58 | 219 | 3.0 | 6.0 | 0.00 | 0.00 | 0.00 | 56 | 1006.9 |
| 20260503040023 | 58 | 219 | 3.0 | 6.0 | 0.00 | 0.00 | 0.00 | 56 | 1006.9 |
| 20260503035415 | 58 | 224 | 3.0 | 7.0 | 0.00 | 0.00 | 0.00 | 54 | 1007.0 |
| 20260503035325 | 58 | 224 | 3.0 | 7.0 | 0.00 | 0.00 | 0.00 | 54 | 1007.0 |
| 20260503034623 | 59 | 236 | 3.0 | 7.0 | 0.00 | 0.00 | 0.00 | 53 | 1007.1 |
| 20260503034415 | 59 | 229 | 3.0 | 7.0 | 0.00 | 0.00 | 0.00 | 52 | 1007.1 |
| 20260503033923 | 59 | 231 | 3.0 | 6.0 | 0.00 | 0.00 | 0.00 | 52 | 1006.9 |
| 20260503033415 | 59 | 232 | 3.0 | 5.0 | 0.00 | 0.00 | 0.00 | 51 | 1006.9 |
| 20260503033223 | 59 | 232 | 3.0 | 5.0 | 0.00 | 0.00 | 0.00 | 51 | 1006.9 |
| 20260503032522 | 59 | 232 | 2.0 | 5.0 | 0.00 | 0.00 | 0.00 | 51 | 1006.9 |
| 20260503032415 | 59 | 232 | 2.0 | 5.0 | 0.00 | 0.00 | 0.00 | 51 | 1006.9 |
| 20260503031823 | 59 | 232 | 2.0 | 4.0 | 0.00 | 0.00 | 0.00 | 51 | 1007.0 |
| 20260503031415 | 59 | 232 | 1.0 | 6.0 | 0.00 | 0.00 | 0.00 | 51 | 1006.9 |
| 20260503031122 | 59 | 232 | 1.0 | 6.0 | 0.00 | 0.00 | 0.00 | 51 | 1006.9 |
| 20260503030414 | 60 | 218 | 3.0 | 7.0 | 0.00 | 0.00 | 0.00 | 49 | 1007.1 |
| 20260503025724 | 60 | 234 | 3.0 | 7.0 | 0.00 | 0.00 | 0.00 | 48 | 1007.0 |
| 20260503025414 | 60 | 218 | 4.0 | 10.0 | 0.00 | 0.00 | 0.00 | 47 | 1006.8 |
| 20260503025022 | 60 | 218 | 4.0 | 10.0 | 0.00 | 0.00 | 0.00 | 47 | 1006.8 |
| 20260503024416 | 61 | 214 | 4.0 | 10.0 | 0.00 | 0.00 | 0.00 | 46 | 1007.0 |
| 20260503024323 | 61 | 214 | 4.0 | 10.0 | 0.00 | 0.00 | 0.00 | 46 | 1007.0 |
| 20260503023624 | 61 | 215 | 5.0 | 10.0 | 0.00 | 0.00 | 0.00 | 45 | 1007.0 |
| 20260503023416 | 62 | 213 | 6.0 | 10.0 | 0.00 | 0.00 | 0.00 | 44 | 1007.0 |
| 20260503022923 | 62 | 214 | 4.0 | 10.0 | 0.00 | 0.00 | 0.00 | 44 | 1006.9 |
| 20260503022415 | 62 | 232 | 2.0 | 12.0 | 0.00 | 0.00 | 0.00 | 43 | 1006.9 |
| 20260503022225 | 62 | 232 | 2.0 | 12.0 | 0.00 | 0.00 | 0.00 | 43 | 1006.9 |
| 20260503021526 | 63 | 220 | 5.0 | 12.0 | 0.00 | 0.00 | 0.00 | 43 | 1007.1 |
| 20260503021415 | 62 | 214 | 5.0 | 12.0 | 0.00 | 0.00 | 0.00 | 43 | 1007.1 |
| 20260503020827 | 62 | 236 | 4.0 | 12.0 | 0.00 | 0.00 | 0.00 | 44 | 1007.1 |
| 20260503020415 | 62 | 204 | 5.0 | 11.0 | 0.00 | 0.00 | 0.00 | 43 | 1006.8 |
| 20260503020126 | 62 | 204 | 5.0 | 11.0 | 0.00 | 0.00 | 0.00 | 43 | 1006.8 |
| 20260503015415 | 63 | 213 | 5.0 | 9.0 | 0.00 | 0.00 | 0.00 | 43 | 1007.1 |
| 20260503014727 | 63 | 211 | 5.0 | 11.0 | 0.00 | 0.00 | 0.00 | 43 | 1007.1 |
| 20260503014415 | 63 | 210 | 5.0 | 11.0 | 0.00 | 0.00 | 0.00 | 43 | 1007.1 |
| 20260503014022 | 63 | 210 | 5.0 | 11.0 | 0.00 | 0.00 | 0.00 | 43 | 1007.1 |
| 20260503013415 | 64 | 207 | 6.0 | 10.0 | 0.00 | 0.00 | 0.00 | 43 | 1007.1 |
| 20260503013322 | 64 | 207 | 6.0 | 10.0 | 0.00 | 0.00 | 0.00 | 43 | 1007.1 |
| 20260503012627 | 64 | 208 | 4.0 | 10.0 | 0.00 | 0.00 | 0.00 | 42 | 1007.2 |
| 20260503012414 | 64 | 206 | 4.0 | 10.0 | 0.00 | 0.00 | 0.00 | 41 | 1007.2 |
| 20260503011923 | 65 | 217 | 4.0 | 9.0 | 0.00 | 0.00 | 0.00 | 41 | 1007.2 |
| 20260503011414 | 65 | 211 | 4.0 | 7.0 | 0.00 | 0.00 | 0.00 | 40 | 1007.1 |
| 20260503011222 | 65 | 211 | 4.0 | 7.0 | 0.00 | 0.00 | 0.00 | 40 | 1007.1 |
| 20260503010523 | 65 | 212 | 4.0 | 8.0 | 0.00 | 0.00 | 0.00 | 40 | 1007.3 |
| 20260503010415 | 66 | 220 | 4.0 | 9.0 | 0.00 | 0.00 | 0.00 | 39 | 1007.4 |
| 20260503005825 | 66 | 212 | 3.0 | 9.0 | 0.00 | 0.00 | 0.00 | 39 | 1007.3 |
| 20260503005414 | 66 | 223 | 3.0 | 10.0 | 0.00 | 0.00 | 0.00 | 38 | 1007.4 |
| 20260503005122 | 66 | 223 | 3.0 | 10.0 | 0.00 | 0.00 | 0.00 | 38 | 1007.4 |
| 20260503004415 | 67 | 219 | 5.0 | 12.0 | 0.00 | 0.00 | 0.00 | 37 | 1007.7 |
| 20260503003724 | 67 | 225 | 6.0 | 12.0 | 0.00 | 0.00 | 0.00 | 36 | 1007.8 |
| 20260503003415 | 68 | 224 | 6.0 | 15.0 | 0.00 | 0.00 | 0.00 | 36 | 1007.9 |
| 20260503003023 | 68 | 224 | 6.0 | 15.0 | 0.00 | 0.00 | 0.00 | 36 | 1007.9 |
| 20260503002415 | 68 | 226 | 5.0 | 14.0 | 0.00 | 0.00 | 0.00 | 35 | 1008.1 |
| 20260503002323 | 68 | 226 | 5.0 | 14.0 | 0.00 | 0.00 | 0.00 | 35 | 1008.1 |
| 20260503001625 | 67 | 220 | 5.0 | 14.0 | 0.00 | 0.00 | 0.00 | 35 | 1008.2 |
| 20260503001415 | 67 | 213 | 7.0 | 12.0 | 0.00 | 0.00 | 0.00 | 35 | 1008.4 |
| 20260503000923 | 67 | 222 | 6.0 | 13.0 | 0.00 | 0.00 | 0.00 | 34 | 1008.6 |
| 20260503000416 | 67 | 221 | 5.0 | 13.0 | 0.00 | 0.00 | 0.00 | 34 | 1008.7 |
| 20260503000225 | 67 | 221 | 5.0 | 13.0 | 0.00 | 0.00 | 0.00 | 34 | 1008.7 |
| 20260502235524 | 67 | 217 | 6.0 | 14.0 | 0.00 | 0.00 | 0.00 | 33 | 1008.7 |
| 20260502235415 | 67 | 224 | 7.0 | 14.0 | 0.00 | 0.00 | 0.00 | 33 | 1008.8 |
| 20260502234822 | 67 | 220 | 8.0 | 17.0 | 0.00 | 0.00 | 0.00 | 33 | 1008.9 |
| 20260502234415 | 68 | 222 | 7.0 | 17.0 | 0.00 | 0.00 | 0.00 | 32 | 1009.2 |
| 20260502234124 | 68 | 222 | 7.0 | 17.0 | 0.00 | 0.00 | 0.00 | 32 | 1009.2 |
| 20260502233415 | 68 | 226 | 5.0 | 19.0 | 0.00 | 0.00 | 0.00 | 33 | 1009.2 |
| 20260502232725 | 69 | 221 | 6.0 | 15.0 | 0.00 | 0.00 | 0.00 | 32 | 1009.1 |
| 20260502232415 | 69 | 231 | 6.0 | 13.0 | 0.00 | 0.00 | 0.00 | 32 | 1009.2 |
| 20260502232022 | 69 | 231 | 6.0 | 13.0 | 0.00 | 0.00 | 0.00 | 32 | 1009.2 |
| 20260502231414 | 68 | 242 | 6.0 | 18.0 | 0.00 | 0.00 | 0.00 | 32 | 1009.1 |
| 20260502231322 | 68 | 242 | 6.0 | 18.0 | 0.00 | 0.00 | 0.00 | 32 | 1009.1 |
| 20260502230625 | 68 | 218 | 9.0 | 18.0 | 0.00 | 0.00 | 0.00 | 32 | 1009.2 |
| 20260502230414 | 68 | 228 | 5.0 | 19.0 | 0.00 | 0.00 | 0.00 | 32 | 1009.3 |
| 20260502225921 | 68 | 238 | 6.0 | 19.0 | 0.00 | 0.00 | 0.00 | 32 | 1009.3 |
| 20260502225415 | 68 | 241 | 6.0 | 24.0 | 0.00 | 0.00 | 0.00 | 33 | 1009.5 |
| 20260502225225 | 68 | 241 | 6.0 | 24.0 | 0.00 | 0.00 | 0.00 | 33 | 1009.5 |
| 20260502224522 | 68 | 218 | 10.0 | 24.0 | 0.00 | 0.00 | 0.00 | 33 | 1009.5 |
| 20260502224415 | 68 | 234 | 7.0 | 19.0 | 0.00 | 0.00 | 0.00 | 33 | 1009.6 |
| 20260502223822 | 68 | 221 | 9.0 | 16.0 | 0.00 | 0.00 | 0.00 | 33 | 1009.7 |
| 20260502223415 | 68 | 219 | 8.0 | 19.0 | 0.00 | 0.00 | 0.00 | 33 | 1009.8 |
| 20260502223122 | 68 | 219 | 8.0 | 19.0 | 0.00 | 0.00 | 0.00 | 33 | 1009.8 |
| 20260502222415 | 68 | 217 | 8.0 | 17.0 | 0.00 | 0.00 | 0.00 | 35 | 1009.9 |
| 20260502221722 | 68 | 226 | 9.0 | 17.0 | 0.00 | 0.00 | 0.00 | 34 | 1010.1 |
| 20260502221414 | 68 | 221 | 8.0 | 16.0 | 0.00 | 0.00 | 0.00 | 35 | 1010.1 |
| 20260502221023 | 68 | 221 | 8.0 | 16.0 | 0.00 | 0.00 | 0.00 | 35 | 1010.1 |
| 20260502220415 | 67 | 223 | 7.0 | 19.0 | 0.00 | 0.00 | 0.00 | 35 | 1010.1 |
| 20260502220326 | 67 | 223 | 7.0 | 19.0 | 0.00 | 0.00 | 0.00 | 35 | 1010.1 |
| 20260502215625 | 68 | 220 | 8.0 | 20.0 | 0.00 | 0.00 | 0.00 | 34 | 1010.1 |
| 20260502215415 | 68 | 222 | 7.0 | 20.0 | 0.00 | 0.00 | 0.00 | 35 | 1010.0 |
| 20260502214923 | 68 | 230 | 9.0 | 19.0 | 0.00 | 0.00 | 0.00 | 34 | 1010.1 |
| 20260502214415 | 68 | 224 | 9.0 | 20.0 | 0.00 | 0.00 | 0.00 | 35 | 1010.3 |
| 20260502214222 | 68 | 224 | 9.0 | 20.0 | 0.00 | 0.00 | 0.00 | 35 | 1010.3 |
| 20260502213524 | 68 | 233 | 6.0 | 20.0 | 0.00 | 0.00 | 0.00 | 35 | 1010.3 |
| 20260502213414 | 68 | 217 | 8.0 | 19.0 | 0.00 | 0.00 | 0.00 | 36 | 1010.3 |
| 20260502212823 | 67 | 217 | 11.0 | 19.0 | 0.00 | 0.00 | 0.00 | 35 | 1010.3 |
| 20260502212414 | 67 | 219 | 9.0 | 16.0 | 0.00 | 0.00 | 0.00 | 36 | 1010.5 |
| 20260502212123 | 67 | 219 | 9.0 | 16.0 | 0.00 | 0.00 | 0.00 | 36 | 1010.5 |
| 20260502211414 | 66 | 213 | 6.0 | 17.0 | 0.00 | 0.00 | 0.00 | 36 | 1011.0 |
| 20260502210726 | 66 | 209 | 7.0 | 17.0 | 0.00 | 0.00 | 0.00 | 38 | 1011.1 |
| 20260502210416 | 66 | 221 | 9.0 | 17.0 | 0.00 | 0.00 | 0.00 | 37 | 1011.3 |
| 20260502210024 | 66 | 221 | 9.0 | 17.0 | 0.00 | 0.00 | 0.00 | 37 | 1011.3 |